Precipitable_Water
0.79 0.79 0.79 0.79 0.79 0.79 0.79 0.79 0.81 0.81 0.81 0.79 0.79 0.79 0.79 0.77 0.77 0.77 0.79 0.79 0.79 0.77 0.77 0.77 0.77 0.77 0.77 0.76 0.72 0.70 0.68 0.66 0.66 0.64 0.64 0.64 0.64 0.64 0.64 0.66 0.66 0.66 0.66 0.64 0.64 0.64 0.64 0.62 0.62 0.62 0.60 0.60 0.60 0.60 0.60 0.60 0.60 0.60 0.60 0.58 0.58 0.58 0.56 0.56 0.56 0.56 0.56 0.56 0.56
0.77 0.77 0.79 0.81 0.81 0.79 0.79 0.79 0.79 0.81 0.81 0.81 0.79 0.79 0.79 0.77 0.77 0.77 0.79 0.79 0.79 0.79 0.79 0.79 0.79 0.79 0.77 0.77 0.74 0.70 0.68 0.68 0.66 0.66 0.66 0.64 0.64 0.64 0.66 0.66 0.66 0.66 0.64 0.64 0.64 0.64 0.64 0.62 0.62 0.60 0.60 0.60 0.60 0.58 0.58 0.60 0.60 0.58 0.58 0.58 0.58 0.58 0.58 0.56 0.56 0.56 0.56 0.56 0.56
0.76 0.77 0.79 0.79 0.79 0.79 0.77 0.77 0.77 0.79 0.79 0.81 0.81 0.81 0.79 0.79 0.77 0.77 0.79 0.79 0.79 0.81 0.81 0.79 0.79 0.79 0.79 0.77 0.76 0.74 0.72 0.70 0.68 0.66 0.66 0.64 0.64 0.66 0.66 0.66 0.66 0.64 0.64 0.64 0.64 0.64 0.62 0.62 0.60 0.60 0.60 0.60 0.58 0.58 0.58 0.60 0.60 0.58 0.58 0.58 0.58 0.58 0.58 0.56 0.56 0.56 0.56 0.56 0.56
0.76 0.77 0.77 0.79 0.77 0.77 0.77 0.77 0.77 0.77 0.79 0.79 0.81 0.81 0.79 0.79 0.79 0.79 0.79 0.81 0.81 0.81 0.81 0.81 0.81 0.81 0.79 0.79 0.79 0.76 0.74 0.72 0.70 0.68 0.66 0.66 0.66 0.64 0.64 0.64 0.64 0.64 0.64 0.64 0.64 0.62 0.62 0.60 0.60 0.60 0.60 0.58 0.58 0.58 0.58 0.58 0.58 0.58 0.58 0.58 0.58 0.58 0.58 0.58 0.58 0.58 0.56 0.56 0.56
0.76 0.77 0.77 0.77 0.77 0.77 0.77 0.77 0.77 0.77 0.79 0.79 0.79 0.79 0.79 0.79 0.79 0.79 0.79 0.81 0.81 0.81 0.81 0.81 0.81 0.81 0.81 0.81 0.79 0.77 0.74 0.72 0.70 0.68 0.68 0.66 0.64 0.64 0.64 0.64 0.64 0.64 0.64 0.62 0.62 0.62 0.60 0.60 0.60 0.60 0.60 0.60 0.58 0.58 0.58 0.58 0.60 0.60 0.58 0.58 0.58 0.58 0.58 0.58 0.58 0.58 0.56 0.56 0.56
0.76 0.77 0.79 0.79 0.79 0.79 0.79 0.79 0.79 0.79 0.79 0.79 0.79 0.79 0.79 0.79 0.79 0.79 0.79 0.79 0.79 0.81 0.81 0.81 0.81 0.81 0.81 0.81 0.79 0.77 0.76 0.74 0.72 0.70 0.68 0.66 0.64 0.64 0.64 0.64 0.64 0.64 0.64 0.62 0.62 0.60 0.60 0.60 0.60 0.60 0.60 0.60 0.58 0.58 0.60 0.60 0.60 0.60 0.58 0.58 0.58 0.58 0.58 0.56 0.56 0.56 0.56 0.56 0.56
0.76 0.77 0.79 0.79 0.81 0.81 0.79 0.79 0.79 0.79 0.79 0.79 0.77 0.77 0.77 0.77 0.77 0.77 0.77 0.79 0.79 0.81 0.81 0.81 0.81 0.79 0.79 0.79 0.79 0.77 0.76 0.74 0.72 0.70 0.68 0.66 0.64 0.64 0.62 0.64 0.64 0.64 0.62 0.62 0.60 0.60 0.60 0.60 0.60 0.60 0.60 0.60 0.58 0.58 0.60 0.60 0.60 0.58 0.58 0.56 0.58 0.58 0.58 0.56 0.56 0.56 0.56 0.56 0.56
0.77 0.79 0.79 0.79 0.79 0.79 0.79 0.79 0.79 0.79 0.79 0.77 0.77 0.77 0.77 0.77 0.77 0.77 0.79 0.79 0.79 0.79 0.79 0.79 0.79 0.79 0.79 0.79 0.79 0.77 0.76 0.74 0.72 0.70 0.68 0.66 0.64 0.64 0.64 0.64 0.64 0.64 0.62 0.62 0.60 0.60 0.60 0.60 0.60 0.60 0.60 0.60 0.58 0.58 0.58 0.58 0.58 0.58 0.56 0.56 0.56 0.56 0.58 0.56 0.58 0.58 0.58 0.58 0.58
0.77 0.77 0.77 0.79 0.79 0.79 0.79 0.79 0.79 0.77 0.77 0.77 0.77 0.77 0.77 0.77 0.77 0.77 0.79 0.79 0.79 0.79 0.79 0.79 0.79 0.79 0.79 0.79 0.77 0.77 0.76 0.72 0.70 0.68 0.66 0.66 0.64 0.64 0.64 0.64 0.64 0.62 0.62 0.60 0.60 0.60 0.60 0.60 0.60 0.60 0.58 0.58 0.58 0.58 0.58 0.58 0.58 0.56 0.56 0.56 0.56 0.56 0.56 0.56 0.58 0.58 0.58 0.58 0.58
0.76 0.76 0.76 0.77 0.77 0.77 0.77 0.79 0.77 0.77 0.77 0.76 0.77 0.77 0.77 0.77 0.77 0.77 0.77 0.79 0.79 0.79 0.79 0.79 0.79 0.79 0.79 0.79 0.77 0.77 0.76 0.72 0.70 0.68 0.66 0.64 0.64 0.64 0.64 0.64 0.64 0.62 0.60 0.60 0.60 0.60 0.60 0.60 0.58 0.58 0.58 0.58 0.58 0.58 0.58 0.58 0.56 0.56 0.56 0.56 0.56 0.56 0.56 0.56 0.58 0.58 0.58 0.58 0.58
0.74 0.76 0.76 0.76 0.76 0.77 0.77 0.77 0.77 0.77 0.76 0.76 0.77 0.77 0.77 0.77 0.77 0.77 0.77 0.79 0.77 0.77 0.77 0.79 0.79 0.79 0.77 0.77 0.77 0.76 0.76 0.74 0.70 0.68 0.66 0.66 0.66 0.66 0.66 0.64 0.62 0.60 0.58 0.58 0.58 0.58 0.60 0.58 0.58 0.58 0.58 0.58 0.58 0.58 0.56 0.56 0.56 0.56 0.56 0.56 0.56 0.56 0.56 0.56 0.56 0.58 0.58 0.58 0.60
0.74 0.74 0.76 0.76 0.76 0.76 0.76 0.76 0.76 0.76 0.76 0.76 0.76 0.76 0.76 0.76 0.76 0.77 0.77 0.77 0.77 0.77 0.77 0.79 0.79 0.79 0.77 0.77 0.77 0.76 0.74 0.74 0.70 0.68 0.68 0.68 0.68 0.68 0.68 0.66 0.60 0.58 0.58 0.58 0.58 0.58 0.58 0.58 0.58 0.56 0.56 0.56 0.56 0.56 0.56 0.56 0.56 0.54 0.54 0.54 0.54 0.54 0.54 0.56 0.56 0.58 0.58 0.60 0.60
0.72 0.74 0.74 0.74 0.74 0.76 0.76 0.74 0.74 0.74 0.74 0.74 0.74 0.76 0.76 0.76 0.76 0.76 0.77 0.76 0.77 0.77 0.77 0.77 0.79 0.79 0.77 0.77 0.76 0.74 0.74 0.72 0.72 0.72 0.72 0.72 0.70 0.68 0.64 0.62 0.58 0.56 0.56 0.58 0.58 0.58 0.58 0.58 0.56 0.56 0.56 0.56 0.56 0.56 0.56 0.56 0.54 0.54 0.54 0.54 0.54 0.54 0.54 0.56 0.56 0.58 0.60 0.60 0.60
0.72 0.72 0.74 0.74 0.74 0.74 0.74 0.74 0.74 0.74 0.74 0.74 0.74 0.74 0.74 0.76 0.76 0.76 0.76 0.76 0.77 0.77 0.77 0.77 0.77 0.77 0.77 0.76 0.74 0.74 0.74 0.74 0.74 0.74 0.74 0.72 0.68 0.64 0.62 0.58 0.56 0.56 0.56 0.56 0.56 0.56 0.56 0.56 0.56 0.56 0.56 0.56 0.56 0.56 0.56 0.54 0.54 0.54 0.54 0.54 0.54 0.54 0.54 0.56 0.56 0.58 0.60 0.60 0.60
0.72 0.72 0.72 0.72 0.74 0.74 0.72 0.72 0.74 0.72 0.72 0.72 0.74 0.74 0.74 0.74 0.76 0.76 0.76 0.76 0.76 0.77 0.77 0.77 0.76 0.76 0.76 0.76 0.76 0.76 0.77 0.77 0.77 0.76 0.72 0.68 0.64 0.62 0.58 0.56 0.54 0.54 0.54 0.56 0.56 0.56 0.56 0.56 0.56 0.56 0.56 0.54 0.54 0.54 0.54 0.54 0.54 0.54 0.54 0.54 0.54 0.54 0.56 0.56 0.58 0.60 0.60 0.60 0.58
0.70 0.72 0.72 0.72 0.72 0.72 0.72 0.72 0.72 0.72 0.72 0.72 0.74 0.74 0.74 0.74 0.74 0.74 0.74 0.74 0.76 0.76 0.76 0.74 0.74 0.76 0.76 0.77 0.79 0.79 0.79 0.79 0.77 0.74 0.70 0.64 0.62 0.60 0.56 0.54 0.54 0.54 0.54 0.54 0.54 0.56 0.56 0.56 0.56 0.56 0.54 0.54 0.54 0.54 0.54 0.54 0.54 0.54 0.54 0.54 0.54 0.56 0.56 0.58 0.60 0.60 0.62 0.62 0.60
0.70 0.70 0.72 0.72 0.72 0.72 0.72 0.72 0.72 0.72 0.72 0.72 0.72 0.72 0.72 0.72 0.74 0.74 0.74 0.74 0.74 0.74 0.74 0.74 0.76 0.77 0.79 0.81 0.81 0.81 0.79 0.77 0.76 0.72 0.68 0.62 0.60 0.58 0.56 0.54 0.54 0.52 0.54 0.54 0.54 0.54 0.54 0.56 0.56 0.56 0.54 0.54 0.54 0.54 0.54 0.54 0.54 0.54 0.54 0.54 0.56 0.56 0.58 0.58 0.60 0.62 0.62 0.62 0.60
0.70 0.70 0.70 0.70 0.70 0.72 0.72 0.72 0.72 0.72 0.72 0.72 0.72 0.72 0.72 0.72 0.72 0.72 0.74 0.74 0.74 0.76 0.77 0.77 0.79 0.81 0.81 0.79 0.77 0.77 0.76 0.72 0.70 0.68 0.64 0.60 0.58 0.56 0.54 0.54 0.54 0.54 0.54 0.54 0.54 0.54 0.54 0.54 0.54 0.54 0.54 0.54 0.54 0.54 0.54 0.54 0.54 0.54 0.54 0.54 0.56 0.56 0.58 0.60 0.62 0.62 0.62 0.62 0.60
0.68 0.70 0.70 0.70 0.72 0.72 0.72 0.72 0.72 0.74 0.74 0.74 0.74 0.74 0.74 0.74 0.74 0.74 0.76 0.77 0.77 0.79 0.79 0.81 0.81 0.79 0.79 0.76 0.74 0.72 0.72 0.68 0.66 0.64 0.62 0.60 0.58 0.56 0.54 0.54 0.54 0.54 0.54 0.54 0.54 0.54 0.54 0.54 0.54 0.54 0.54 0.54 0.52 0.52 0.52 0.52 0.52 0.54 0.54 0.54 0.56 0.56 0.58 0.62 0.62 0.64 0.62 0.62 0.60
0.68 0.68 0.70 0.70 0.70 0.72 0.72 0.72 0.72 0.72 0.74 0.74 0.74 0.74 0.74 0.74 0.76 0.76 0.77 0.77 0.79 0.79 0.79 0.79 0.77 0.77 0.76 0.74 0.72 0.70 0.68 0.66 0.64 0.64 0.62 0.60 0.56 0.56 0.54 0.54 0.54 0.54 0.54 0.54 0.54 0.54 0.54 0.54 0.54 0.52 0.52 0.52 0.52 0.52 0.52 0.52 0.52 0.54 0.54 0.54 0.56 0.58 0.60 0.62 0.64 0.64 0.62 0.60 0.60
0.68 0.68 0.68 0.70 0.70 0.70 0.70 0.72 0.72 0.72 0.72 0.74 0.74 0.74 0.74 0.74 0.74 0.76 0.76 0.77 0.77 0.77 0.77 0.77 0.76 0.76 0.74 0.72 0.70 0.68 0.66 0.66 0.64 0.62 0.60 0.60 0.58 0.56 0.56 0.56 0.54 0.54 0.54 0.54 0.54 0.52 0.52 0.52 0.52 0.52 0.52 0.52 0.52 0.52 0.52 0.52 0.52 0.54 0.54 0.56 0.58 0.60 0.62 0.64 0.64 0.64 0.62 0.60 0.58
0.66 0.68 0.68 0.68 0.68 0.68 0.70 0.70 0.70 0.70 0.72 0.72 0.72 0.72 0.72 0.72 0.72 0.72 0.74 0.76 0.76 0.76 0.74 0.74 0.74 0.72 0.72 0.70 0.68 0.66 0.66 0.64 0.62 0.62 0.60 0.60 0.58 0.58 0.56 0.56 0.54 0.54 0.54 0.52 0.52 0.52 0.52 0.52 0.52 0.52 0.52 0.52 0.52 0.52 0.52 0.52 0.54 0.54 0.56 0.58 0.60 0.62 0.64 0.66 0.64 0.64 0.62 0.60 0.58
0.66 0.68 0.68 0.68 0.68 0.68 0.68 0.70 0.68 0.68 0.68 0.68 0.68 0.68 0.68 0.70 0.70 0.70 0.72 0.72 0.72 0.72 0.72 0.72 0.72 0.72 0.70 0.70 0.68 0.66 0.64 0.64 0.62 0.62 0.60 0.60 0.58 0.58 0.58 0.56 0.56 0.54 0.54 0.52 0.52 0.52 0.52 0.52 0.52 0.52 0.52 0.52 0.52 0.52 0.52 0.54 0.54 0.56 0.58 0.60 0.62 0.64 0.64 0.64 0.64 0.62 0.62 0.60 0.58
0.66 0.68 0.68 0.68 0.68 0.68 0.68 0.68 0.68 0.66 0.66 0.66 0.66 0.66 0.66 0.68 0.68 0.68 0.70 0.70 0.70 0.70 0.72 0.72 0.72 0.70 0.70 0.70 0.68 0.66 0.64 0.62 0.62 0.60 0.60 0.60 0.58 0.58 0.58 0.56 0.56 0.54 0.54 0.52 0.52 0.52 0.52 0.52 0.52 0.52 0.52 0.52 0.52 0.52 0.54 0.54 0.56 0.58 0.58 0.60 0.64 0.64 0.64 0.64 0.62 0.62 0.60 0.58 0.58
0.68 0.68 0.68 0.68 0.68 0.68 0.68 0.68 0.66 0.66 0.66 0.66 0.66 0.66 0.66 0.68 0.68 0.68 0.68 0.70 0.70 0.70 0.70 0.70 0.70 0.70 0.70 0.68 0.68 0.66 0.64 0.62 0.62 0.60 0.60 0.58 0.58 0.58 0.58 0.56 0.56 0.54 0.54 0.54 0.54 0.52 0.52 0.52 0.52 0.52 0.52 0.52 0.52 0.54 0.54 0.56 0.58 0.58 0.60 0.62 0.64 0.64 0.62 0.62 0.60 0.60 0.58 0.56 0.56
0.68 0.68 0.66 0.66 0.66 0.66 0.66 0.66 0.66 0.66 0.66 0.66 0.66 0.66 0.66 0.66 0.68 0.68 0.68 0.68 0.70 0.70 0.70 0.70 0.70 0.70 0.68 0.68 0.66 0.64 0.64 0.62 0.62 0.60 0.58 0.58 0.58 0.56 0.56 0.56 0.56 0.54 0.54 0.54 0.54 0.54 0.54 0.52 0.52 0.52 0.52 0.54 0.54 0.54 0.56 0.58 0.58 0.60 0.62 0.64 0.64 0.64 0.62 0.60 0.58 0.56 0.56 0.54 0.54
0.66 0.66 0.66 0.66 0.66 0.64 0.64 0.64 0.64 0.64 0.64 0.64 0.64 0.66 0.66 0.66 0.66 0.68 0.68 0.68 0.68 0.68 0.68 0.68 0.68 0.68 0.68 0.66 0.66 0.64 0.64 0.62 0.60 0.60 0.58 0.58 0.56 0.56 0.56 0.56 0.56 0.54 0.54 0.54 0.54 0.54 0.54 0.54 0.54 0.54 0.54 0.54 0.56 0.56 0.56 0.58 0.60 0.62 0.64 0.64 0.64 0.62 0.60 0.60 0.56 0.54 0.54 0.52 0.52
0.64 0.64 0.64 0.64 0.64 0.64 0.64 0.64 0.64 0.64 0.64 0.64 0.64 0.64 0.64 0.66 0.66 0.66 0.66 0.66 0.66 0.68 0.68 0.68 0.68 0.68 0.66 0.66 0.66 0.64 0.64 0.62 0.60 0.58 0.58 0.56 0.56 0.54 0.54 0.54 0.54 0.54 0.54 0.54 0.54 0.54 0.54 0.54 0.54 0.56 0.56 0.56 0.56 0.58 0.58 0.60 0.62 0.64 0.64 0.64 0.62 0.62 0.60 0.58 0.56 0.54 0.52 0.52 0.52
0.62 0.62 0.62 0.62 0.62 0.62 0.62 0.64 0.64 0.62 0.62 0.62 0.64 0.64 0.64 0.64 0.64 0.64 0.64 0.64 0.66 0.66 0.66 0.66 0.66 0.66 0.66 0.64 0.64 0.64 0.62 0.60 0.60 0.58 0.56 0.56 0.54 0.54 0.54 0.54 0.54 0.54 0.54 0.54 0.54 0.54 0.54 0.54 0.56 0.58 0.58 0.60 0.60 0.60 0.60 0.62 0.64 0.64 0.64 0.64 0.62 0.60 0.58 0.56 0.56 0.54 0.52 0.52 0.50
0.62 0.62 0.62 0.62 0.62 0.62 0.62 0.62 0.62 0.62 0.62 0.62 0.62 0.62 0.62 0.62 0.62 0.62 0.64 0.64 0.64 0.64 0.64 0.66 0.66 0.66 0.64 0.64 0.64 0.64 0.62 0.62 0.60 0.58 0.56 0.54 0.54 0.52 0.52 0.52 0.52 0.54 0.54 0.54 0.54 0.54 0.54 0.56 0.56 0.58 0.60 0.62 0.62 0.62 0.62 0.64 0.64 0.64 0.62 0.62 0.60 0.58 0.56 0.54 0.54 0.52 0.52 0.50 0.50
0.60 0.60 0.60 0.60 0.60 0.60 0.60 0.60 0.60 0.62 0.62 0.62 0.62 0.60 0.60 0.60 0.60 0.62 0.62 0.60 0.62 0.64 0.64 0.64 0.64 0.64 0.64 0.64 0.64 0.62 0.62 0.60 0.58 0.56 0.54 0.54 0.52 0.52 0.52 0.52 0.52 0.52 0.54 0.54 0.54 0.54 0.56 0.56 0.58 0.60 0.60 0.62 0.64 0.64 0.64 0.64 0.64 0.64 0.62 0.60 0.58 0.56 0.54 0.52 0.52 0.52 0.50 0.50 0.48
0.60 0.60 0.60 0.58 0.58 0.58 0.58 0.60 0.60 0.60 0.60 0.60 0.60 0.60 0.60 0.58 0.58 0.60 0.60 0.60 0.62 0.62 0.62 0.62 0.62 0.62 0.62 0.62 0.62 0.62 0.62 0.60 0.60 0.56 0.54 0.52 0.52 0.52 0.52 0.52 0.52 0.52 0.54 0.54 0.54 0.54 0.56 0.56 0.58 0.60 0.62 0.62 0.64 0.64 0.64 0.64 0.62 0.62 0.62 0.60 0.56 0.54 0.52 0.52 0.50 0.50 0.48 0.48 0.46
0.60 0.60 0.58 0.58 0.58 0.58 0.58 0.58 0.58 0.58 0.58 0.58 0.58 0.58 0.58 0.58 0.58 0.58 0.60 0.60 0.60 0.60 0.62 0.62 0.62 0.62 0.62 0.62 0.62 0.62 0.60 0.60 0.58 0.56 0.54 0.52 0.52 0.52 0.52 0.52 0.52 0.52 0.54 0.54 0.54 0.54 0.56 0.56 0.58 0.60 0.62 0.62 0.62 0.62 0.62 0.60 0.60 0.60 0.58 0.56 0.54 0.54 0.52 0.50 0.50 0.48 0.48 0.46 0.44
0.58 0.58 0.58 0.58 0.58 0.58 0.58 0.58 0.58 0.58 0.58 0.56 0.56 0.58 0.58 0.58 0.58 0.58 0.58 0.58 0.60 0.60 0.60 0.62 0.62 0.62 0.62 0.62 0.62 0.60 0.60 0.60 0.58 0.56 0.54 0.52 0.52 0.52 0.52 0.52 0.52 0.54 0.54 0.54 0.54 0.54 0.54 0.56 0.58 0.60 0.60 0.60 0.60 0.58 0.58 0.58 0.58 0.56 0.54 0.52 0.52 0.50 0.50 0.48 0.48 0.46 0.46 0.44 0.42
0.58 0.58 0.58 0.58 0.58 0.56 0.56 0.56 0.56 0.56 0.56 0.56 0.56 0.56 0.56 0.58 0.58 0.58 0.58 0.58 0.58 0.60 0.60 0.60 0.60 0.60 0.60 0.60 0.60 0.60 0.60 0.58 0.58 0.56 0.54 0.52 0.52 0.50 0.50 0.52 0.52 0.54 0.54 0.54 0.54 0.54 0.56 0.56 0.56 0.58 0.56 0.56 0.56 0.56 0.56 0.56 0.56 0.52 0.50 0.50 0.48 0.48 0.46 0.46 0.46 0.44 0.44 0.42 0.42
0.58 0.58 0.58 0.56 0.56 0.56 0.56 0.56 0.56 0.56 0.56 0.56 0.56 0.56 0.56 0.56 0.58 0.58 0.58 0.58 0.58 0.58 0.58 0.58 0.60 0.60 0.60 0.60 0.60 0.60 0.58 0.58 0.56 0.54 0.54 0.52 0.50 0.50 0.50 0.52 0.52 0.54 0.54 0.54 0.54 0.54 0.56 0.56 0.56 0.56 0.54 0.54 0.54 0.56 0.54 0.54 0.50 0.48 0.48 0.46 0.46 0.44 0.44 0.44 0.42 0.42 0.42 0.40 0.38
0.58 0.58 0.58 0.56 0.56 0.56 0.56 0.56 0.56 0.56 0.56 0.56 0.56 0.56 0.56 0.56 0.58 0.58 0.58 0.58 0.58 0.58 0.58 0.58 0.58 0.58 0.58 0.58 0.58 0.58 0.58 0.58 0.56 0.54 0.52 0.50 0.50 0.50 0.52 0.52 0.52 0.52 0.52 0.54 0.54 0.54 0.54 0.54 0.54 0.54 0.54 0.54 0.54 0.54 0.52 0.50 0.46 0.46 0.44 0.42 0.42 0.42 0.40 0.40 0.40 0.40 0.38 0.36 0.36
0.58 0.58 0.58 0.56 0.56 0.56 0.56 0.56 0.56 0.56 0.56 0.56 0.56 0.56 0.56 0.56 0.56 0.58 0.58 0.58 0.58 0.56 0.56 0.56 0.58 0.58 0.58 0.58 0.58 0.58 0.58 0.56 0.54 0.52 0.50 0.50 0.50 0.52 0.52 0.52 0.52 0.52 0.52 0.52 0.52 0.52 0.52 0.52 0.52 0.52 0.52 0.52 0.52 0.50 0.48 0.44 0.42 0.42 0.40 0.40 0.38 0.38 0.38 0.38 0.38 0.38 0.36 0.34 0.34
0.58 0.58 0.58 0.58 0.56 0.56 0.56 0.56 0.56 0.56 0.56 0.56 0.56 0.56 0.56 0.56 0.56 0.56 0.58 0.58 0.56 0.56 0.56 0.56 0.56 0.58 0.58 0.58 0.58 0.56 0.54 0.54 0.52 0.52 0.50 0.50 0.52 0.52 0.52 0.50 0.50 0.50 0.50 0.50 0.50 0.50 0.50 0.50 0.50 0.50 0.50 0.50 0.48 0.48 0.46 0.42 0.40 0.38 0.38 0.36 0.36 0.36 0.36 0.36 0.36 0.34 0.32 0.30 0.30
0.58 0.58 0.58 0.58 0.56 0.56 0.56 0.56 0.56 0.56 0.56 0.56 0.56 0.56 0.56 0.56 0.56 0.58 0.58 0.58 0.56 0.56 0.56 0.56 0.56 0.58 0.58 0.56 0.54 0.54 0.52 0.52 0.52 0.52 0.52 0.50 0.52 0.50 0.50 0.50 0.50 0.50 0.50 0.50 0.50 0.50 0.50 0.48 0.48 0.48 0.48 0.46 0.46 0.44 0.42 0.40 0.38 0.36 0.36 0.34 0.34 0.34 0.32 0.32 0.32 0.30 0.28 0.28 0.26
0.58 0.58 0.58 0.58 0.58 0.56 0.56 0.56 0.56 0.56 0.56 0.56 0.56 0.56 0.56 0.56 0.56 0.56 0.56 0.56 0.56 0.56 0.56 0.56 0.56 0.56 0.56 0.54 0.52 0.52 0.50 0.50 0.50 0.50 0.50 0.50 0.50 0.50 0.50 0.50 0.48 0.48 0.48 0.48 0.48 0.48 0.46 0.46 0.46 0.46 0.44 0.44 0.42 0.40 0.38 0.38 0.36 0.34 0.34 0.32 0.32 0.32 0.30 0.30 0.30 0.28 0.24 0.24 0.24
Wind_Speed
28 28 28 28 27 27 27 26 26 26 26 26 26 26 26 25 25 25 25 24 24 24 24 24 24 25 25 25 26 26 26 26 26 26 26 26 26 26 25 25 25 25 25 26 26 27 27 28 28 28 28 28 28 28 28 28 28 28 29 29 29 29 29 29 30 30 30 30 31
29 28 28 28 28 27 27 26 26 26 26 26 26 26 26 26 26 25 25 25 25 25 25 25 25 25 26 26 26 26 26 26 26 26 26 26 26 26 26 26 26 26 26 27 27 28 28 28 28 28 28 29 28 28 28 28 28 28 29 29 29 29 29 30 30 30 30 31 31
28 28 28 28 28 27 27 26 26 26 26 26 26 26 26 26 26 26 26 25 25 25 25 25 26 26 26 26 27 27 27 27 27 27 27 27 27 26 26 26 26 27 27 27 28 28 29 29 29 29 29 29 29 29 29 29 29 29 29 29 29 29 30 30 30 30 31 31 31
28 28 28 28 28 27 27 27 27 27 27 27 27 26 26 26 26 26 26 26 26 26 26 26 26 26 27 27 27 27 27 27 27 27 27 27 27 27 27 27 27 27 28 28 28 29 29 29 29 29 29 29 29 29 29 29 29 29 29 29 29 30 30 30 30 31 31 31 32
28 28 28 28 28 28 27 27 27 27 27 27 27 27 27 27 26 26 26 26 26 26 27 27 27 27 27 27 27 27 27 27 28 28 28 28 28 28 28 28 28 28 28 29 29 29 29 29 29 29 29 29 29 29 29 29 29 29 29 30 30 30 30 31 31 31 31 32 32
27 27 27 27 28 28 28 28 28 28 28 28 27 27 27 27 27 27 27 27 27 27 27 27 27 27 27 27 27 27 27 28 28 28 28 28 28 28 28 28 28 28 29 29 29 30 30 29 29 29 29 29 29 29 29 29 29 29 30 30 30 30 31 31 31 32 32 32 33
27 27 27 27 27 28 28 28 28 28 28 28 28 28 28 27 27 27 27 27 27 27 27 27 27 27 27 27 28 28 28 28 28 28 28 28 28 28 28 28 28 29 29 30 30 30 30 30 30 29 29 29 29 29 29 29 29 29 30 30 31 31 31 31 32 32 32 33 33
26 27 27 27 27 28 28 28 28 28 28 29 28 28 28 28 28 28 28 28 28 28 28 28 27 28 28 28 28 28 28 28 28 28 28 28 28 28 28 28 29 29 30 30 30 30 30 30 30 30 29 29 29 29 29 29 29 30 30 31 31 31 32 32 32 33 33 33 34
26 26 27 27 27 28 28 28 29 29 29 29 29 29 29 28 28 28 28 28 28 28 28 28 28 28 28 28 28 28 28 28 28 29 29 28 28 28 29 29 29 30 30 31 30 30 30 30 30 30 30 30 30 30 30 30 30 30 31 31 31 32 32 32 33 33 33 34 34
26 26 26 27 27 28 28 28 28 29 29 29 29 29 29 29 29 29 29 29 29 29 29 29 29 29 29 29 29 29 29 29 29 29 28 28 29 29 29 30 30 31 31 31 30 30 30 30 30 30 30 30 30 30 30 30 30 30 31 31 32 32 33 33 33 34 34 35 35
26 26 26 27 27 27 28 28 28 28 29 29 29 29 29 29 29 29 29 29 29 29 29 29 29 29 29 29 29 29 29 29 29 29 29 29 30 30 31 31 31 31 31 31 30 30 30 30 30 30 30 30 30 30 30 30 31 31 31 32 32 33 33 34 34 34 35 35 36
25 26 26 26 27 27 27 27 28 28 28 29 29 29 29 29 29 29 29 29 29 29 29 29 29 29 29 29 29 29 29 29 29 29 30 30 31 31 31 31 31 31 31 30 30 30 30 30 30 30 30 30 30 30 30 31 31 31 32 32 33 33 34 34 35 35 35 36 36
25 25 26 26 26 27 27 27 27 28 28 28 28 28 29 29 29 28 28 28 28 29 29 29 29 29 29 29 29 29 29 29 30 30 31 32 32 32 32 32 31 31 30 30 30 30 30 30 30 30 30 30 30 31 31 31 31 32 32 33 33 34 34 35 35 35 36 36 36
24 25 25 26 26 26 26 27 27 27 27 28 28 28 28 28 28 28 28 28 28 29 29 29 29 29 29 29 29 29 29 30 31 32 32 32 32 32 32 31 31 31 30 30 30 30 30 30 30 30 30 31 31 31 31 32 32 32 33 33 34 34 35 35 36 36 36 36 37
24 24 25 25 25 26 26 26 26 26 27 27 27 27 27 28 28 28 28 28 29 29 29 29 29 29 29 29 29 30 31 31 32 32 32 32 32 31 31 31 31 30 30 30 30 30 30 30 30 31 31 31 31 32 32 32 33 33 33 34 34 35 35 36 36 36 36 37 37
23 23 24 24 24 25 25 25 25 26 26 26 26 27 27 27 28 28 28 28 28 28 28 28 28 28 29 30 30 31 32 32 32 32 32 31 31 31 31 31 31 30 30 30 30 30 30 31 31 31 31 31 32 32 32 33 33 34 34 34 35 35 36 36 36 36 37 37 37
21 21 22 22 23 23 23 24 24 24 25 25 26 26 27 27 27 27 28 28 28 28 28 28 28 29 30 31 31 32 32 32 32 31 31 31 31 31 31 31 31 31 30 30 30 31 31 31 31 31 31 32 32 33 33 33 34 34 34 35 35 36 36 36 36 37 37 37 37
19 19 20 20 21 21 21 22 22 23 23 24 24 25 25 26 26 26 27 27 27 27 28 28 29 30 30 31 31 31 31 31 31 31 31 30 30 31 31 31 31 31 30 30 31 31 31 31 31 32 32 32 33 33 33 34 34 34 35 35 36 36 36 36 37 37 37 37 38
17 18 19 19 20 20 20 21 21 21 22 22 23 23 24 24 25 25 26 26 27 27 28 29 29 30 30 31 31 31 31 30 30 30 30 30 30 30 30 30 30 30 31 31 31 31 31 31 32 32 32 33 33 33 34 34 34 35 35 36 36 36 36 37 37 37 38 38 38
17 18 18 19 19 20 20 20 20 20 20 21 21 22 22 23 23 24 25 26 26 27 28 28 29 30 30 30 30 30 30 30 30 30 30 30 30 30 30 30 30 31 31 31 31 31 32 32 32 32 33 33 33 34 34 34 35 35 36 36 36 36 37 37 38 38 38 38 38
17 18 18 19 19 19 19 19 19 19 20 20 20 21 22 22 23 24 25 26 26 27 28 29 29 30 30 30 30 30 30 30 30 30 30 30 30 30 30 30 31 31 31 31 31 32 32 32 33 33 33 33 34 34 34 35 35 36 36 36 37 37 37 38 38 38 38 39 39
17 17 17 18 18 18 18 19 19 19 20 20 21 21 22 23 24 24 25 26 27 28 29 29 30 30 30 30 30 30 30 30 30 30 30 30 30 30 30 30 31 31 31 31 32 32 32 33 33 33 33 34 34 34 34 35 36 36 36 37 37 38 38 39 39 39 39 39 40
16 16 17 17 17 18 19 19 19 20 20 21 22 22 23 24 25 26 26 27 28 29 29 30 30 30 30 30 30 30 30 30 30 30 30 30 30 30 30 30 31 31 31 32 32 32 33 33 33 33 34 34 34 34 35 35 36 36 37 38 38 39 39 40 40 40 40 40 41
16 16 16 17 18 18 19 19 20 21 21 22 23 23 24 25 26 26 27 28 29 29 30 30 30 30 30 30 30 30 30 30 30 30 30 30 30 30 30 31 31 31 32 32 32 32 33 33 33 34 34 34 34 35 35 36 36 37 38 38 39 40 40 40 40 40 41 41 41
16 16 17 17 18 18 19 20 20 21 22 22 23 24 25 25 26 27 27 28 29 29 29 29 30 29 29 29 29 29 29 29 29 30 30 30 30 30 30 31 31 31 32 32 32 33 33 33 33 34 34 34 35 35 36 37 37 38 38 39 40 40 41 41 41 41 41 42 42
16 16 17 17 18 19 19 20 21 21 22 23 23 24 25 26 26 27 27 28 28 29 29 29 29 29 29 29 29 29 29 29 30 30 30 30 30 30 31 31 31 31 32 32 32 33 33 33 33 34 34 34 35 36 37 37 38 39 39 40 41 41 41 42 42 42 42 42 42
16 16 17 17 18 19 19 20 21 22 22 23 24 24 25 26 26 27 27 28 28 28 29 29 29 29 29 29 29 29 29 29 30 30 30 30 30 30 31 31 31 31 32 32 32 33 33 33 34 34 34 35 36 36 37 38 39 40 40 41 41 42 42 42 42 42 42 43 43
15 16 17 17 18 19 20 20 21 22 23 23 24 25 25 26 26 27 27 28 28 28 28 28 28 28 28 28 29 29 29 29 30 30 30 30 30 30 31 31 31 31 31 32 32 33 33 34 34 34 35 36 36 37 38 39 39 40 41 41 42 42 42 42 42 43 43 43 43
15 16 17 18 18 19 20 21 21 22 23 24 24 25 25 26 26 26 27 27 27 27 28 28 28 28 28 28 28 29 29 29 30 30 30 30 30 30 31 31 31 31 31 32 32 33 33 34 34 35 36 37 37 38 39 39 40 41 41 42 42 42 42 42 43 43 43 44 44
16 17 17 18 19 20 21 21 22 22 23 24 24 24 25 25 26 26 26 26 27 27 27 27 27 27 28 28 28 29 29 29 30 30 30 30 30 30 30 31 31 31 31 32 32 33 34 34 35 36 37 38 38 39 39 40 41 41 42 42 42 42 42 43 43 43 44 44 45
17 18 18 19 20 20 21 22 22 23 23 23 24 24 25 25 25 25 26 26 26 26 27 27 27 27 28 28 28 29 29 29 30 30 30 30 30 30 30 30 31 31 31 32 33 33 34 35 36 37 38 38 39 39 40 40 41 42 42 42 42 43 43 43 44 44 45 45 46
18 19 19 20 20 21 21 22 22 23 23 23 24 24 24 24 25 25 25 25 26 26 26 26 27 27 28 28 28 29 29 29 29 30 30 30 30 30 30 30 31 31 31 32 33 34 35 36 37 37 38 39 39 40 40 41 41 42 42 42 43 43 43 44 44 45 46 46 47
19 20 20 20 21 21 22 22 22 23 23 23 23 24 24 24 24 25 25 25 25 26 26 26 27 27 27 28 28 28 29 29 29 29 29 29 30 30 30 30 31 31 32 32 33 34 35 36 37 38 39 39 40 40 40 41 41 42 42 43 43 44 44 45 46 46 47 48 48
20 20 21 21 21 22 22 22 22 22 23 23 23 23 24 24 24 24 25 25 25 26 26 26 27 27 27 28 28 28 28 29 29 29 29 29 29 30 30 31 31 31 32 33 34 35 36 37 38 39 39 40 40 40 40 41 42 42 43 43 44 44 45 46 47 47 48 49 49
20 21 21 21 21 22 22 22 22 22 23 23 23 24 24 24 24 24 25 25 25 26 26 26 27 27 27 27 27 27 28 28 28 28 29 29 29 30 30 31 31 32 33 33 34 35 36 37 38 39 39 40 40 40 41 41 42 42 43 44 45 45 46 47 47 48 48 49 50
21 21 21 21 22 22 22 22 22 22 23 23 23 24 24 24 24 24 25 25 25 25 26 26 26 26 26 26 26 27 27 27 28 28 28 29 29 30 31 31 32 32 33 34 35 36 37 37 38 39 39 40 40 40 41 41 42 43 44 45 45 46 47 47 48 48 49 49 50
21 21 22 22 22 22 22 22 22 23 23 23 24 24 24 24 24 25 25 25 25 25 25 25 25 25 25 25 26 26 26 27 27 28 28 29 29 30 31 32 32 33 34 34 35 36 37 38 38 39 39 39 40 40 41 42 43 44 45 45 46 47 47 48 48 49 49 50 50
21 22 22 22 22 22 22 23 23 23 23 23 24 24 24 24 24 24 25 25 25 25 24 24 24 24 24 24 25 25 26 26 27 27 28 29 30 30 31 32 33 33 34 34 35 36 37 38 38 39 39 40 40 41 42 43 44 45 45 46 47 47 48 48 49 49 50 50 51
22 22 22 22 22 23 23 23 23 23 23 23 23 24 24 24 24 24 24 24 24 24 24 23 23 23 24 24 25 25 26 26 27 27 28 29 30 31 31 32 33 33 34 34 35 36 37 38 39 39 40 40 41 42 43 44 44 45 46 47 47 48 48 49 49 49 50 51 51
22 22 22 22 22 22 22 22 22 22 22 23 23 23 23 23 23 23 23 23 23 23 23 23 23 23 24 24 24 25 26 26 27 28 29 29 30 31 31 32 33 33 34 35 35 36 37 38 39 40 41 41 42 42 43 44 45 46 47 47 48 48 49 49 49 50 50 51 52
22 22 22 22 22 22 22 22 22 22 22 22 22 22 22 22 22 22 22 22 22 22 22 23 23 23 24 24 25 25 26 27 27 28 29 29 30 31 31 32 33 34 34 35 36 37 38 39 40 41 42 42 42 43 44 45 45 46 47 48 48 49 49 50 50 50 51 51 51
Wind_Direction
246 247 248 248 249 249 249 249 250 250 250 251 251 253 254 255 255 256 257 257 257 258 258 258 258 258 258 257 257 257 257 258 258 259 260 262 263 265 267 268 270 273 275 277 279 280 280 281 282 283 284 286 287 288 289 290 290 291 291 292 293 294 295 296 296 297 298 299 300
246 247 248 248 249 249 249 250 250 250 250 251 252 253 254 255 256 256 257 257 258 258 258 258 258 258 257 257 257 257 258 258 259 260 261 262 264 265 267 269 271 274 276 278 279 279 280 280 281 283 284 286 287 288 289 289 290 291 291 292 293 294 295 296 297 297 298 299 300
247 247 248 248 248 249 249 249 250 250 250 251 252 253 255 256 256 257 257 257 258 258 258 258 258 258 258 258 258 258 259 259 260 260 262 263 264 265 267 270 272 275 276 277 278 278 278 279 281 283 284 286 287 288 288 289 290 290 291 292 293 294 295 296 297 298 299 300 300
247 247 248 248 248 248 248 249 250 250 251 251 252 253 254 255 256 257 257 257 257 257 258 258 258 258 258 259 259 260 260 260 260 261 262 263 264 266 268 271 273 275 276 277 277 277 277 279 281 283 285 286 286 287 288 289 290 290 291 292 293 294 295 296 297 298 299 300 300
247 248 248 248 248 248 249 249 249 250 251 251 252 253 254 255 256 256 256 256 257 257 257 257 258 259 259 260 260 261 261 261 261 261 262 263 265 267 269 272 274 275 275 275 275 276 277 279 281 283 284 285 286 287 288 289 289 290 291 292 293 294 295 296 297 298 299 300 300
248 248 248 248 248 249 249 250 250 250 251 251 252 252 253 255 255 256 256 256 256 257 257 257 258 259 260 260 261 261 262 262 262 262 263 264 267 269 271 272 274 274 274 274 274 275 277 279 281 283 284 285 286 287 288 288 289 290 291 292 293 294 295 296 297 298 299 300 300
248 248 248 249 248 249 249 250 250 250 251 252 252 252 253 254 255 255 255 256 256 256 257 257 258 259 260 261 261 262 262 262 263 263 264 266 268 270 271 272 272 273 273 273 274 276 277 279 281 282 283 284 285 286 287 288 289 290 291 291 292 294 295 296 297 298 299 300 300
249 249 249 249 249 249 250 250 250 251 252 252 253 253 253 254 255 255 255 255 256 256 256 257 258 259 260 260 261 262 263 263 264 265 266 267 268 269 270 271 271 272 272 273 274 276 278 279 281 282 283 284 285 286 287 288 288 289 290 291 292 293 295 296 297 298 299 300 300
250 250 251 251 250 250 251 251 252 252 253 253 254 254 254 255 255 255 255 255 255 256 256 257 258 258 259 260 261 262 263 264 264 266 267 267 268 268 269 270 270 271 272 273 274 276 277 279 280 282 283 284 285 286 287 287 288 289 290 291 292 293 295 296 297 298 299 300 300
251 252 252 252 252 252 253 253 254 254 255 255 255 255 255 255 255 254 255 255 255 256 256 257 258 258 259 260 262 263 264 265 266 266 266 267 266 267 268 269 269 270 271 273 274 275 277 279 280 281 282 283 284 285 286 287 288 289 290 291 292 294 295 296 297 298 299 300 300
252 253 253 254 254 254 255 255 256 256 256 256 256 256 256 255 255 255 255 256 256 256 256 257 258 259 260 261 263 264 265 266 266 266 266 265 265 266 267 268 269 269 270 272 274 275 276 278 279 280 282 283 284 285 286 287 288 289 290 291 293 294 295 296 297 298 299 300 300
253 254 255 255 256 256 256 256 257 257 257 257 257 256 256 256 256 256 256 256 256 257 258 258 259 260 261 263 265 266 267 267 266 265 265 265 265 266 267 268 268 269 270 272 273 275 276 277 279 280 281 282 284 285 286 287 288 289 290 291 293 294 295 296 298 299 300 300 300
254 255 256 256 257 257 257 257 258 258 258 257 257 257 257 257 257 257 257 257 258 259 260 260 261 262 264 266 266 267 267 266 265 265 265 265 266 266 267 267 268 269 270 271 273 274 276 277 278 279 281 282 284 285 286 287 288 289 290 292 293 294 295 296 298 299 300 300 300
256 257 257 258 259 259 259 259 259 259 258 258 258 258 258 258 258 258 259 259 259 260 261 263 264 265 266 267 267 267 266 266 266 266 266 266 266 266 266 267 267 268 270 271 273 274 276 277 278 280 281 282 284 285 286 287 288 290 291 292 293 294 295 297 298 299 299 299 299
258 259 260 260 261 261 261 261 261 261 260 259 259 258 259 259 259 259 260 260 261 262 263 264 265 266 267 267 267 267 267 267 266 266 266 266 266 265 266 266 267 269 270 272 273 275 276 278 279 280 282 283 284 286 287 288 289 290 291 292 293 294 296 297 298 299 299 299 298
259 260 261 262 262 262 262 262 262 261 261 260 259 259 259 259 260 260 261 261 262 263 264 265 266 267 267 268 268 267 267 267 267 266 265 265 265 265 265 266 268 269 271 272 274 275 277 278 280 281 282 284 285 286 287 288 289 290 291 293 294 295 296 297 298 298 298 298 297
259 260 261 261 262 262 262 262 262 262 261 261 260 260 260 260 261 261 261 262 263 264 265 266 266 267 267 268 268 267 267 266 266 265 264 264 264 265 266 267 269 270 272 273 274 276 277 279 280 282 283 284 286 287 288 289 290 291 292 293 294 295 296 297 297 298 298 297 297
258 259 260 261 261 261 262 262 262 262 262 261 261 261 261 261 261 262 262 263 264 264 265 265 266 266 266 267 267 266 266 265 264 264 264 264 265 266 267 269 270 271 273 274 275 276 278 279 281 282 284 285 286 287 288 289 290 291 292 293 294 295 296 296 297 297 297 297 296
259 259 260 261 261 262 262 262 263 263 262 262 262 262 262 261 261 262 262 263 263 263 264 264 265 266 266 265 266 266 265 265 265 265 265 266 267 268 269 270 271 272 273 275 276 277 279 280 281 283 284 286 287 288 289 290 291 291 292 293 294 295 296 296 297 297 296 296 296
261 261 261 262 262 263 263 263 264 264 264 263 262 262 261 261 261 261 261 262 262 263 264 264 265 265 265 266 266 266 266 266 266 266 267 267 268 269 270 271 272 273 274 276 277 278 279 281 282 283 284 286 287 288 289 290 290 291 292 293 294 295 296 296 296 296 296 296 297
262 262 263 263 263 264 264 265 265 265 265 264 263 262 262 262 262 262 262 263 263 264 264 264 265 265 266 267 267 268 268 268 268 268 268 269 269 270 271 272 273 274 275 276 278 279 280 281 282 283 285 285 286 287 288 289 290 291 292 293 294 295 295 296 296 296 296 297 297
264 264 264 265 265 265 265 266 267 267 267 266 265 264 264 263 263 264 264 264 265 265 265 266 267 268 268 269 269 269 270 270 270 270 270 270 271 272 273 273 274 275 276 277 278 279 281 282 283 284 284 285 286 287 288 289 290 291 292 293 294 295 295 296 296 296 297 297 298
265 266 266 267 267 267 267 268 268 268 267 267 266 266 265 265 265 265 266 266 267 267 268 269 270 271 271 272 271 271 271 271 271 271 271 272 272 273 274 275 275 276 277 278 279 280 281 282 283 283 284 285 286 287 288 289 290 291 292 293 294 295 295 296 296 297 297 298 298
267 267 268 269 269 269 269 269 269 269 268 268 268 267 267 267 268 268 268 269 269 270 271 272 273 273 273 273 273 272 272 272 272 272 273 273 274 274 275 275 276 276 277 278 279 279 280 281 282 283 284 285 286 287 288 289 290 291 292 293 294 295 296 296 297 297 297 298 298
269 269 270 271 271 271 271 271 270 270 270 270 270 270 270 270 270 270 270 271 271 272 272 273 274 274 274 274 273 273 273 273 273 273 273 274 274 275 275 276 276 277 277 278 278 278 279 280 282 283 284 285 286 287 288 289 291 292 293 294 294 295 296 296 297 297 297 298 298
271 272 273 273 273 273 273 273 273 273 274 274 273 273 273 272 272 272 272 272 273 273 273 274 274 275 274 274 274 274 274 274 274 274 274 274 275 275 275 276 276 276 277 277 277 277 278 279 281 282 284 285 286 288 289 290 291 292 293 294 295 295 296 296 297 297 297 298 298
275 275 275 276 276 276 276 276 276 276 276 276 276 275 275 275 275 275 274 274 274 275 275 275 275 275 275 275 274 274 274 274 274 274 275 275 275 275 275 275 276 276 277 277 277 277 278 279 280 282 284 286 287 288 290 291 292 293 294 294 295 295 296 296 297 297 297 298 298
278 278 279 279 279 279 279 279 279 278 278 278 278 278 278 277 277 276 276 276 276 276 276 276 276 276 276 276 275 275 274 275 275 275 275 275 275 275 275 275 276 276 276 276 277 278 279 280 281 282 284 286 288 289 290 292 293 293 294 295 295 296 296 296 297 297 297 298 298
280 281 281 281 281 281 281 281 280 280 279 279 279 279 279 278 278 278 277 277 277 277 277 277 277 277 277 276 275 275 275 275 275 275 276 276 275 275 275 276 276 276 276 276 277 278 279 280 282 283 284 286 288 290 291 292 293 294 294 295 296 296 296 296 297 297 297 298 298
283 283 284 284 283 283 283 282 281 281 280 280 280 279 279 279 279 279 278 278 278 277 277 278 278 277 277 276 276 276 276 276 276 276 276 276 276 276 276 276 277 277 277 277 278 279 280 281 283 284 285 287 288 290 292 292 293 294 295 296 296 296 296 296 297 297 297 298 298
287 287 287 286 286 285 285 284 283 282 281 281 280 280 280 280 280 280 279 279 279 279 278 278 278 278 277 277 277 277 277 277 277 277 277 277 276 276 277 277 277 278 278 278 279 280 281 283 284 285 287 287 289 290 292 293 294 295 295 296 296 296 296 296 297 297 297 298 298
290 290 289 289 288 287 287 286 285 284 283 282 282 281 281 281 281 281 281 280 280 279 279 279 278 278 278 278 278 278 278 278 278 278 278 277 277 277 278 278 279 279 280 280 281 282 283 284 286 287 288 288 289 291 292 293 294 295 296 296 296 296 296 297 297 297 297 297 298
292 292 292 291 290 289 288 287 286 285 284 283 283 282 282 282 282 282 282 281 281 280 280 280 279 279 279 279 279 279 279 279 279 279 279 278 278 278 279 279 280 281 281 282 282 283 285 286 287 288 288 289 290 291 293 294 295 296 296 296 296 296 296 296 297 297 297 297 298
294 294 293 292 291 291 290 289 288 286 285 285 284 284 284 284 283 283 283 282 282 282 282 281 281 281 281 281 281 281 281 281 280 280 280 279 279 279 280 280 282 282 283 283 284 285 286 287 288 289 289 290 291 293 294 295 296 296 296 296 296 296 297 297 297 297 297 298 298
295 295 294 293 293 292 291 290 289 288 287 286 285 285 285 285 285 284 284 284 284 284 283 283 283 283 283 283 283 282 282 282 281 281 280 280 280 280 281 282 283 284 284 285 286 286 287 288 289 289 290 291 293 294 295 295 295 295 295 296 296 297 297 297 298 298 298 298 298
296 295 295 294 293 293 292 291 290 289 288 287 287 287 287 286 286 286 286 285 285 285 285 285 285 284 284 284 284 284 283 283 282 282 282 281 282 282 283 283 285 285 286 286 287 288 289 289 290 291 292 293 294 294 295 295 295 295 296 296 297 297 297 298 298 298 298 298 299
297 296 296 295 294 293 293 292 291 290 290 289 289 288 288 288 288 287 287 287 286 286 286 286 286 285 285 285 285 285 285 284 284 284 283 283 284 284 285 285 286 287 287 288 288 289 289 290 291 292 293 293 294 295 295 295 295 296 296 297 297 297 298 298 298 299 299 299 299
298 297 297 296 295 294 293 293 292 291 291 290 290 290 289 289 289 289 288 288 287 287 287 287 287 287 287 287 287 287 286 286 286 286 285 285 285 286 286 287 288 288 289 289 289 290 291 291 292 292 293 294 294 295 295 296 296 296 297 297 297 298 298 298 299 299 299 299 299
299 298 297 296 295 295 294 294 293 293 292 292 291 291 291 291 290 290 290 289 289 289 288 288 288 289 289 289 289 289 289 288 288 287 287 287 287 287 288 288 289 289 290 290 291 291 292 292 293 293 294 294 295 295 296 296 296 296 297 297 298 298 298 299 299 299 299 300 300
300 299 298 297 296 295 295 295 294 294 294 293 293 293 292 292 292 292 292 292 291 291 291 290 290 291 291 291 290 290 290 289 289 288 288 288 289 289 289 290 290 291 291 291 292 292 293 293 294 294 295 295 296 296 296 296 296 297 297 297 298 298 299 299 299 299 300 300 300
301 300 299 298 297 296 296 296 296 295 295 295 294 294 294 294 294 294 294 294 294 294 293 293 293 293 292 292 292 291 291 291 290 290 290 290 290 290 291 291 292 292 292 293 293 293 294 294 294 295 295 296 296 296 296 296 297 297 297 298 298 298 299 299 299 300 300 300 301